Regional Weather Roundup
Issued by NWS Northern Indiana

Home | Current Version | Previous Version | Text Only | Print | Product List | Glossary On
Versions: 1 2 3 4 5 6 7 8 9 10 11 12 13 14 15 16 17 18 19 20 21 22 23 24 25 26 27 28 29 30 31 32 33 34 35 36 37 38 39 40 41 42 43 44 45 46 47 48 49 50
000
ASUS43 KIWX 291400
RWRIWX

KIWX WEATHER ROUNDUP
NATIONAL WEATHER SERVICE NORTHERN INDIANA
1000 AM EDT THU JUN 29 2017

NOTE: "FAIR" INDICATES FEW OR NO CLOUDS BELOW 12,000 FEET WITH NO
SIGNIFICANT WEATHER AND/OR OBSTRUCTIONS TO VISIBILITY.

* THESE STATIONS ARE NOT UNDER NWS QUALITY CONTROL. THEY ALSO MAY NOT
  REPORT WEATHER SUCH AS PRECIPITATION OR FOG.

INZ001>027-291500-
NORTHERN INDIANA

CITY           SKY/WX    TMP DP  RH WIND       PRES   REMARKS
GARY*          PTSUNNY   77  59  53 SW12G23   29.80F
MICHIGAN CITY* CLOUDY    75  63  64 SW16G22   29.81S
KNOX*          CLOUDY    75  54  46 SW20      29.83S
SOUTH BEND     CLOUDY    77  66  68 SW18G28   29.82F
ELKHART*       CLOUDY    77  64  65 SW12G17   29.83S
GOSHEN         CLOUDY    77  63  61 SW20G25   29.84S
MONTICELLO*    CLOUDY    77  64  64 SW18G30   29.86S
FORT WAYNE     PTSUNNY   77  62  59 SW22G28   29.90S
PERU/GRISSOM   MOSUNNY   78  66  66 SW17G31   29.87F

$$
INZ028>050-291500-
CENTRAL INDIANA

CITY           SKY/WX    TMP DP  RH WIND       PRES   REMARKS
LAFAYETTE      MOSUNNY   78  67  68 SW10G24   29.87S
KOKOMO*        PTSUNNY   79  65  62 SW24G30   29.90S
MUNCIE*        SUNNY     79  63  57 SW17G26   29.91R
INDIANAPOLIS   CLOUDY    77  65  66 SW17      29.92R

$$
MIZ043>046-050>051-056>058-064>065-071>073-077>080-291500-
SOUTHWEST LOWER MICHIGAN

CITY           SKY/WX    TMP DP  RH WIND       PRES   REMARKS
BATTLE CREEK   CLOUDY    76  65  68 SW15G23   29.81F
BENTON HARBOR  CLOUDY    78  63  59 SW17G24   29.79S
COLDWATER*     PTSUNNY   74  64  69 SW9G17    29.84S
HILLSDALE*     CLOUDY    72  61  68 SW13G21   29.86S
HOLLAND        CLOUDY    74  64  71 SW15      29.77R
GRAND RAPIDS   PTSUNNY   74  66  76 SW17G26   29.76S
KALAMAZOO      MOSUNNY   77  63  61 SW14G22   29.81S
STURGIS*       CLOUDY    74  65  74 SW12      29.83F
THREE RIVERS*  FAIR      76  65  69 SW8       29.83S

$$
OHZ001>008-015>018-024>025-291500-
NORTHWEST OHIO

CITY           SKY/WX    TMP DP  RH WIND       PRES   REMARKS
DEFIANCE       PTSUNNY   77  62  59 SW15G22   29.88S
FINDLAY        SUNNY     80  61  52 SW22G30   29.91R
TOLEDO EXPRESS CLOUDY    76  63  64 SW15      29.87S
TOLEDO METCALF MOSUNNY   80  63  55 SW21G32   29.89S
LIMA           SUNNY     76  62  62 SW18G32   29.92S

$$
AND FOR LAKE MICHIGAN COASTAL AND OPEN LAKE BUOY OBSERVATIONS

STATION/POSITION TEMP    WIND        PRES    VSBY  WAVE
                 AIR SEA DIR/SP/G                  HT/PER
                 (F)     (DEG/KT/KT) (MB)    (MI)  (FT/S)
CALUMET HARBOR    74     200/ 10/ 14 1008.3R
MICHIGAN CITY     74     200/ 13/ 16   N/A
BURNS HARBOR      75     210/ 17/ 21 1009.5S
SOUTH LAKE BUOY   66 60  240/ 17/ 19 1006.7          3/ 4
4 MI NW BRIDGMAN  71 67  230/ 14/ 16 1008.8R         2/ 3
MICHIGAN CITY     71 65  230/ 10/ 12   N/A           2/ 3

$$
&&




USA.gov is the U.S. government's official web portal to all federal, state and local government web resources and services.